This is the latest recevied weather packets stored in our database for station/object N5SRF. If no packets are shown the sender has not sent any weather packets the latest 10 day(s).
| Time | Temp. | Humidity | Pressure | Rain* | Wind** | Luminosity | Snow |
|---|---|---|---|---|---|---|---|
| 1787941811 | 35.56° C | 55% | 1020.8 hPa | 0 mm | - | 769 W/m² | - |
| 1787941509 | 36.11° C | 54% | 1020.8 hPa | 0 mm | - | 768 W/m² | - |
| 1787941204 | 35.56° C | 56% | 1020.9 hPa | 0 mm | - | 762 W/m² | - |
| 1787940899 | 35° C | 57% | 1020.8 hPa | 0 mm | - | 764 W/m² | - |
| 1787940596 | 35.56° C | 57% | 1020.6 hPa | 0 mm | - | 766 W/m² | - |
| 1787940290 | 35.56° C | 57% | 1021 hPa | 0 mm | - | 766 W/m² | - |
| 1787939990 | 35° C | 58% | 1021 hPa | 0 mm | - | 766 W/m² | - |
| 1787939684 | 35° C | 59% | 1021.1 hPa | 0 mm | - | 767 W/m² | - |
| 1787939378 | 35° C | 59% | 1021.2 hPa | 0 mm | - | 763 W/m² | - |
| 1787939074 | 35.56° C | 57% | 1021.3 hPa | 0 mm | - | 758 W/m² | - |
| 1787938773 | 35° C | 58% | 1021.3 hPa | 0 mm | - | 751 W/m² | - |
| 1787938469 | 35° C | 58% | 1021.1 hPa | 0 mm | - | 747 W/m² | - |
| 1787938164 | 34.44° C | 60% | 1021.1 hPa | 0 mm | - | 743 W/m² | - |
| 1787937859 | 35° C | 59% | 1021.3 hPa | 0 mm | - | 740 W/m² | - |
| 1787937555 | 35° C | 62% | 1021.4 hPa | 0 mm | - | 732 W/m² | - |
| 1787937250 | 34.44° C | 61% | 1021.4 hPa | 0 mm | - | 729 W/m² | - |
| 1787936946 | 33.89° C | 62% | 1021.5 hPa | 0 mm | - | 723 W/m² | - |
| 1787936644 | 33.89° C | 62% | 1021.5 hPa | 0 mm | - | 718 W/m² | - |
| 1787936344 | 33.89° C | 65% | 1021.5 hPa | 0 mm | - | 713 W/m² | - |
| 1787936040 | 33.89° C | 65% | 1021.7 hPa | 0 mm | - | 708 W/m² | - |
| 1787935735 | 34.44° C | 63% | 1021.7 hPa | 0 mm | - | 703 W/m² | - |
| 1787935431 | 34.44° C | 64% | 1021.7 hPa | 0 mm | - | 690 W/m² | - |
| 1787935128 | 34.44° C | 64% | 1021.8 hPa | 0 mm | - | 688 W/m² | - |
| 1787934822 | 34.44° C | 66% | 1021.8 hPa | 0 mm | - | 680 W/m² | - |
| 1787934521 | 34.44° C | 65% | 1021.8 hPa | 0 mm | - | 666 W/m² | - |
* Rain latest hour (hover to see other rain measurements)
** Current wind speed in m/s (hover to see current wind gust speed)